Kansas City, MO

9:24 AM CDT on August 31, 2016 (GMT -0500)
Kansas City Downtown

Weather History for KMKC - October, 2013

Change the Weather History Date:

Monday, October 7, 2013

  Actual Average Record
Temperature  
Mean Temperature 59 °F -  
Max Temperature 72 °F 69 °F 84 °F (1997)
Min Temperature 46 °F 49 °F 30 °F (2000)
Degree Days  
Heating Degree Days 6    
Growing Degree Days 9 (Base 50)    
Moisture  
Dew Point 42 °F    
Average Humidity 58    
Maximum Humidity 80    
Minimum Humidity 34    
Precipitation  
Precipitation 0.00 in - - ()
Sea Level Pressure  
Sea Level Pressure 30.08 in    
Wind  
Wind Speed 3 mph (SW)    
Max Wind Speed 8 mph    
Max Gust Speed -    
Visibility 10 miles    
Events      
Averages and records for this station are not official NWS values.
T = Trace of Precipitation, MM = Missing Value Source: NWS Daily Summary

Daily Weather History Graph

Daily Weather History Graph

Search for Another Location

Airport or City:

Trip Planner

Search our weather history database for the weather conditions in past years. The results will help you decide how hot, cold, wet, or windy it might be!

Date:

Astronomy

Oct. 07, 2013 Rise Set
Actual Time 7:20 AM CDT 6:51 PM CDT
Civil Twilight 6:53 AM CDT 7:17 PM CDT
Nautical Twilight 6:22 AM CDT 7:48 PM CDT
Astronomical Twilight 5:51 AM CDT 8:19 PM CDT
Moon 10:09 AM CDT (10/7) 8:38 PM CDT (10/7)
Length of Visible Light 12h 24m
Length of Day
11h 30m
Waxing Crescent, 9% of the Moon is Illuminated
Oct 7
Waxing Crescent
Oct 11
First Quarter
Oct 18
Full
Oct 26
Last Quarter
Nov 3
New

Hourly Weather History & Observations

Time (CDT) Temp. Windchill Dew Point Humidity Pressure Visibility Wind Dir Wind Speed Gust Speed Precip Events Conditions
12:54 AM 50.0 °F - 43.0 °F 77% 30.00 in 10.0 mi Calm Calm - N/A   Clear
1:54 AM 48.9 °F - 43.0 °F 80% 30.01 in 10.0 mi Calm Calm - N/A   Clear
2:54 AM 48.9 °F - 41.0 °F 74% 30.02 in 10.0 mi Calm Calm - N/A   Clear
3:54 AM 48.9 °F - 39.9 °F 71% 30.03 in 10.0 mi West 3.5 mph - N/A   Clear
4:54 AM 46.9 °F - 39.9 °F 77% 30.04 in 10.0 mi WSW 3.5 mph - N/A   Clear
5:54 AM 46.0 °F 44.8 °F 39.0 °F 76% 30.07 in 10.0 mi SSW 3.5 mph - N/A   Clear
6:54 AM 46.0 °F - 37.9 °F 73% 30.10 in 10.0 mi Calm Calm - N/A   Clear
7:54 AM 46.9 °F - 39.0 °F 74% 30.11 in 10.0 mi Calm Calm - N/A   Clear
8:54 AM 50.0 °F - 39.9 °F 68% 30.12 in 10.0 mi Calm Calm - N/A   Clear
9:54 AM 55.0 °F - 42.1 °F 62% 30.14 in 10.0 mi SW 4.6 mph - N/A   Clear
10:54 AM 59.0 °F - 44.1 °F 58% 30.15 in 10.0 mi SW 5.8 mph - N/A   Unknown
12:54 PM 66.0 °F - 43.0 °F 43% 30.13 in - North - - N/A   Unknown
1:54 PM 69.1 °F - 42.1 °F 38% 30.11 in - WSW 5.8 mph - N/A   Unknown
2:54 PM 71.1 °F - 43.0 °F 36% 30.09 in 10.0 mi West 8.1 mph - N/A   Clear
3:54 PM 72.0 °F - 42.1 °F 34% 30.07 in 10.0 mi SW 8.1 mph - N/A   Clear
4:54 PM 72.0 °F - 44.1 °F 37% 30.06 in 10.0 mi WSW 6.9 mph - N/A   Clear
5:54 PM 70.0 °F - 44.1 °F 39% 30.06 in 10.0 mi SSW 4.6 mph - N/A   Clear
6:54 PM 68.0 °F - 44.1 °F 42% 30.06 in 10.0 mi SW 4.6 mph - N/A   Clear
7:54 PM 64.9 °F - 45.0 °F 48% 30.07 in 10.0 mi Calm Calm - N/A   Clear
8:54 PM 63.0 °F - 46.0 °F 54% 30.08 in 10.0 mi SW 3.5 mph - N/A   Clear
9:54 PM 60.1 °F - 45.0 °F 57% 30.09 in 10.0 mi SSW 6.9 mph - N/A   Clear
10:54 PM 59.0 °F - 45.0 °F 60% 30.10 in 10.0 mi SSW 8.1 mph - N/A   Clear
11:54 PM 57.0 °F - 45.0 °F 64% 30.09 in 10.0 mi SSW 6.9 mph - N/A   Clear